TimeMDT,TemperatureF,Dew PointF,Humidity,Sea Level PressureIn,VisibilityMPH,Wind Direction,Wind SpeedMPH,Gust SpeedMPH,PrecipitationIn,Events,Conditions,WindDirDegrees,DateUTC
12:53 AM,43.0,27.0,53,30.02,10.0,SSE,5.8,-,N/A,,Mostly Cloudy,160,2013-03-31 06:53:00
1:53 AM,41.0,28.0,60,30.00,10.0,ENE,5.8,-,N/A,,Clear,70,2013-03-31 07:53:00
2:53 AM,39.0,26.1,60,30.00,10.0,NNE,3.5,-,N/A,,Clear,20,2013-03-31 08:53:00
3:53 AM,36.0,26.1,67,30.01,10.0,Calm,Calm,-,N/A,,Clear,0,2013-03-31 09:53:00
4:53 AM,34.0,26.1,73,30.01,10.0,SSW,4.6,-,N/A,,Clear,210,2013-03-31 10:53:00
5:53 AM,33.1,26.1,75,30.01,10.0,Calm,Calm,-,N/A,,Clear,0,2013-03-31 11:53:00
6:53 AM,35.1,27.0,72,30.02,10.0,East,3.5,-,N/A,,Clear,80,2013-03-31 12:53:00
7:53 AM,37.0,27.0,67,30.02,10.0,Calm,Calm,-,N/A,,Clear,0,2013-03-31 13:53:00
8:53 AM,43.0,28.9,58,30.03,10.0,Calm,Calm,-,N/A,,Clear,0,2013-03-31 14:53:00
9:53 AM,48.0,32.0,54,30.01,10.0,Calm,Calm,-,N/A,,Overcast,0,2013-03-31 15:53:00
10:53 AM,55.9,28.9,36,30.01,10.0,Calm,Calm,-,N/A,,Mostly Cloudy,0,2013-03-31 16:53:00
11:53 AM,64.0,28.9,27,29.97,10.0,WSW,5.8,-,N/A,,Scattered Clouds,240,2013-03-31 17:53:00
12:53 PM,64.9,27.0,24,29.97,10.0,SSW,15.0,25.3,N/A,,Partly Cloudy,210,2013-03-31 18:53:00
1:53 PM,68.0,28.0,22,29.94,10.0,SSW,12.7,23.0,N/A,,Scattered Clouds,200,2013-03-31 19:53:00
2:53 PM,66.9,28.0,23,29.92,10.0,SSW,15.0,20.7,N/A,,Partly Cloudy,200,2013-03-31 20:53:00
3:53 PM,68.0,27.0,21,29.89,10.0,SSW,19.6,26.5,N/A,,Partly Cloudy,210,2013-03-31 21:53:00
4:53 PM,68.0,26.1,21,29.87,10.0,SW,15.0,26.5,N/A,,Clear,220,2013-03-31 22:53:00
5:53 PM,66.0,24.1,20,29.86,10.0,SSW,21.9,32.2,N/A,,Clear,200,2013-03-31 23:53:00
6:53 PM,64.0,23.0,21,29.84,10.0,SSW,13.8,24.2,N/A,,Clear,210,2013-04-01 00:53:00
7:53 PM,59.0,23.0,25,29.86,10.0,SSW,11.5,-,N/A,,Clear,210,2013-04-01 01:53:00
8:53 PM,52.0,23.0,32,29.86,10.0,South,5.8,-,N/A,,Clear,190,2013-04-01 02:53:00
9:53 PM,54.0,25.0,33,29.86,10.0,South,9.2,-,N/A,,Clear,180,2013-04-01 03:53:00
10:53 PM,53.1,27.0,37,29.84,10.0,South,8.1,-,N/A,,Clear,180,2013-04-01 04:53:00
11:53 PM,51.1,27.0,39,29.82,10.0,South,11.5,-,N/A,,Clear,190,2013-04-01 05:53:00